Location: Waltman Observatory
(32.5145°N, 90.4450°W)
Time: 08:42:36
(UTC-06:00)

Amateur Radio Satellites - All Passes

Search period start: 23 January 2017 08:12
Search period end: 24 January 2017 08:12
Location: Waltman Observatory, 32.5145°N, 90.4450°W

Satellite Date Start Highest point End Downlink Frequencies (MHz)
Time Altitude Azimuth
ANTELSAT 23 Jan 08:17:48 08:18:00 10° 66° (ENE) 08:18:11 437.575/2403.000
CUTE 1.7 + AOD 2 23 Jan 08:31:55 08:35:16 22° 289° (WNW) 08:38:35 437.475
PCSat 23 Jan 08:37:30 08:41:59 26° 56° (ENE) 08:46:27 145.827
CUBEBUG 2 23 Jan 08:38:25 08:42:40 49° 285° (WNW) 08:47:03 437.445
FUNcube-1 23 Jan 08:46:29 08:50:54 64° 101° (E) 08:55:23 145.935
HUMSAT D 23 Jan 08:57:02 08:58:09 11° 93° (E) 08:59:15 437.325/437.525
UWE-3 23 Jan 09:00:09 09:04:23 45° 285° (WNW) 09:08:42 435.000/436.395/437.385
COMPASS 1 23 Jan 09:05:29 09:08:38 21° 289° (WNW) 09:11:46 437.405
SEEDS 23 Jan 09:07:12 09:09:19 14° 292° (WNW) 09:11:26 437.485
ZACube-1 23 Jan 09:11:32 09:15:54 57° 284° (WNW) 09:20:20 437.345
AAUSAT CUBESAT 2 23 Jan 09:13:23 09:16:36 22° 289° (WNW) 09:19:49 437.432
RS-15 23 Jan 09:16:43 09:28:42 63° 249° (WSW) 09:40:08 29.354- 29.394
UNISAT 6 23 Jan 09:21:32 09:25:45 67° 76° (ENE) 09:29:59 437.425
TIGRISAT 23 Jan 09:33:50 09:38:04 88° 77° (ENE) 09:42:20 435.000
PRISM 23 Jan 09:36:08 09:39:11 20° 264° (W) 09:42:15 437.425
HO-68 23 Jan 09:39:45 09:43:32 15° 301° (WNW) 09:47:18 435.675
Oscar 11 23 Jan 09:42:28 09:46:15 29° 288° (WNW) 09:50:01 145.826/435.025
ANTELSAT 23 Jan 09:50:02 09:54:11 53° 259° (W) 09:58:21 437.575/2403.000
DELFI C3 23 Jan 10:01:18 10:05:11 51° 284° (WNW) 10:09:00 145.870
QB50P1 23 Jan 10:10:29 10:13:24 19° 70° (ENE) 10:16:20 145.935-145.965
POLYITAN 1 23 Jan 10:15:25 10:18:36 21° 70° (ENE) 10:21:48 437.675
JAS-2 23 Jan 10:16:33 10:21:48 74° 75° (ENE) 10:27:36 435.910
QB50P2 23 Jan 10:16:34 10:19:57 24° 71° (ENE) 10:23:19 145.880/145.840
PCSat 23 Jan 10:20:29 10:25:24 35° 251° (WSW) 10:30:16 145.827
HUMSAT D 23 Jan 10:29:47 10:33:56 48° 285° (WNW) 10:38:04 437.325/437.525
POPSAT HIP 1 23 Jan 10:36:40 10:40:32 38° 73° (ENE) 10:44:25 437.405
ESTCUBE 1 23 Jan 10:39:41 10:43:10 21° 96° (E) 10:46:35 437.505/2401.250
DUCHIFAT 1 23 Jan 10:43:17 10:47:09 38° 74° (ENE) 10:51:01 145.980
NANOSAT C BR1 23 Jan 10:50:22 10:54:26 53° 75° (ENE) 10:58:31 145.865
BY70-1 23 Jan 10:58:29 11:01:36 86° 105° (ESE) 11:04:26 436.1900
BUGSAT 1 23 Jan 11:05:13 11:08:23 22° 71° (ENE) 11:11:33 437.445
CUBEBUG 1 23 Jan 11:14:21 11:18:08 29° 97° (E) 11:21:54 437.445
AO-85 23 Jan 11:24:42 11:26:52 13° 109° (ESE) 11:28:59 145.980
Cosmos 2491 23 Jan 11:38:54 11:45:24 22° 71° (ENE) 11:51:52 435.465 / 435.565
AISAT 23 Jan 11:39:21 11:43:24 36° 99° (E) 11:47:25 437.250
Oscar 19 23 Jan 11:43:51 11:47:29 19° 67° (ENE) 11:51:06 437.125/150
QB50P1 23 Jan 11:45:23 11:48:57 27° 263° (W) 11:52:32 145.935-145.965
POLYITAN 1 23 Jan 11:50:53 11:54:14 23° 264° (W) 11:57:36 437.675
QB50P2 23 Jan 11:52:27 11:55:38 21° 264° (W) 11:58:49 145.880/145.840
JUGNU 23 Jan 12:06:09 12:09:59 18° 169° (SSE) 12:13:49 437.505
VELOX 1 23 Jan 12:12:15 12:16:39 89° 84° (E) 12:21:02 145.980
POPSAT HIP 1 23 Jan 12:14:28 12:16:24 13° 266° (W) 12:18:21 437.405
SPROUT 23 Jan 12:15:59 12:20:15 74° 101° (E) 12:24:29 437.525
ESTCUBE 1 23 Jan 12:16:04 12:19:52 27° 289° (WNW) 12:23:39 437.505/2401.250
DUCHIFAT 1 23 Jan 12:21:09 12:22:56 12° 266° (W) 12:24:44 145.980
Gurwin Techsat 1B 23 Jan 12:23:55 12:28:12 25° 69° (ENE) 12:32:29 435.225
UKube-1 23 Jan 12:25:52 12:29:52 38° 99° (E) 12:33:52 .
50 SAT 23 Jan 12:28:54 12:32:24 62° 283° (WNW) 12:35:52 437.505
AIST 1 23 Jan 12:31:45 12:34:48 19° 88° (E) 12:37:51
DX 1 23 Jan 12:33:15 12:37:34 69° 101° (E) 12:41:52 434.975-435.025
BUGSAT 1 23 Jan 12:40:35 12:43:38 20° 264° (W) 12:46:41 437.445
Cosmos 2504 23 Jan 12:45:37 12:49:07 13° 81° (E) 12:52:31 435.465 / 435.565
CUBEBUG 1 23 Jan 12:51:13 12:54:10 18° 291° (WNW) 12:57:05 437.445
AO-7 23 Jan 12:53:58 12:57:52 14° 54° (NE) 13:01:47 29.400- 29.500
CUSAT 1 23 Jan 13:01:09 13:08:17 36° 73° (ENE) 13:14:35 437.405
AO-85 23 Jan 13:02:13 13:06:56 53° 300° (WNW) 13:11:19 145.980
AISAT 23 Jan 13:16:55 13:19:30 16° 292° (WNW) 13:22:05 437.250
Oscar 19 23 Jan 13:21:32 13:26:26 41° 261° (W) 13:31:20 437.125/150
TISAT 1 23 Jan 13:31:56 13:36:06 71° 102° (ESE) 13:40:16 437.305
YUBILEINY 23 Jan 13:32:26 13:41:05 65° 91° (E) 13:49:47 435.215
Cosmos 2491 23 Jan 13:34:07 13:42:47 66° 268° (W) 13:51:28 435.465 / 435.565
ITUPSAT 1 23 Jan 13:42:33 13:45:15 15° 94° (E) 13:47:56 437.325
SRMSAT 23 Jan 13:42:51 13:45:41 14° 164° (SSE) 13:48:31 437.500
JUGNU 23 Jan 13:53:49 13:58:22 23° 179° (S) 14:02:55 437.505
BEESAT 3 23 Jan 13:54:48 13:56:14 12° 108° (ESE) 13:57:40 437.485
UKube-1 23 Jan 14:03:10 14:05:32 15° 292° (WNW) 14:07:53 .
Gurwin Techsat 1B 23 Jan 14:03:15 14:07:56 32° 262° (W) 14:12:40 435.225
AIST 1 23 Jan 14:08:28 14:12:09 26° 282° (WNW) 14:15:49
ITAMSAT 1 23 Jan 14:11:40 14:16:42 55° 73° (ENE) 14:21:44 435.822/435.867
BEESAT 23 Jan 14:13:26 14:17:47 34° 98° (E) 14:22:07 436.000
SWISSCUBE 23 Jan 14:15:18 14:19:50 41° 99° (E) 14:24:21 437.505
DANDE 23 Jan 14:23:25 14:31:31 60° 80° (E) 14:39:33 436.750
Cosmos 2504 23 Jan 14:32:39 14:41:24 87° 95° (E) 14:49:39 435.465 / 435.565
AO-7 23 Jan 14:40:57 14:49:16 78° 71° (ENE) 14:57:39 29.400- 29.500
CUSAT 1 23 Jan 14:43:04 14:50:07 38° 272° (W) 14:56:18 437.405
BEESAT 2 23 Jan 14:45:34 14:48:26 20° 110° (ESE) 14:51:20 435.950
O/OREOS (USA 219) 23 Jan 14:56:51 15:00:26 23° 64° (ENE) 15:04:01 437.305
MOZHAYETS 4 23 Jan 15:15:24 15:19:55 49° 100° (E) 15:24:24
ITUPSAT 1 23 Jan 15:18:39 15:23:13 44° 287° (WNW) 15:27:46 437.325
SRMSAT 23 Jan 15:29:42 15:34:13 22° 173° (S) 15:38:42 437.500
BEESAT 3 23 Jan 15:29:47 15:33:25 39° 302° (WNW) 15:37:07 437.485
KKS-1 23 Jan 15:30:48 15:33:56 19° 96° (E) 15:37:05 437.445
YUBILEINY 23 Jan 15:31:52 15:38:25 23° 289° (WNW) 15:45:01 435.215
AUBIESAT-1 23 Jan 15:34:15 15:35:14 11° 99° (E) 15:36:13 437.475
HORYU 2 23 Jan 15:36:40 15:37:12 10° 65° (ENE) 15:37:43 437.375
JUGNU 23 Jan 15:42:36 15:46:46 20° 189° (S) 15:50:59 437.505
BEESAT 23 Jan 15:51:51 15:55:17 20° 292° (WNW) 15:58:42 436.000
ITAMSAT 1 23 Jan 15:53:56 15:56:25 13° 267° (W) 15:58:54 435.822/435.867
SWISSCUBE 23 Jan 15:54:12 15:57:14 17° 293° (WNW) 16:00:17 437.505
SO-50 23 Jan 15:54:51 15:59:12 49° 59° (ENE) 16:03:31 436.795
GOMX 1 23 Jan 16:01:33 16:05:38 23° 70° (ENE) 16:09:35 467.674
DANDE 23 Jan 16:07:10 16:13:41 27° 274° (W) 16:20:11 436.750
CUBESAT XI-V 23 Jan 16:11:01 16:14:58 27° 96° (E) 16:18:52 437.345
STARS 23 Jan 16:13:42 16:17:20 25° 97° (E) 16:20:57 437.465
BRITE-PL 23 Jan 16:13:46 16:19:27 77° 76° (ENE) 16:25:04 437.365/2234.400
BEESAT 2 23 Jan 16:22:44 16:26:01 25° 304° (NW) 16:29:22 435.950
DOVE 4 23 Jan 16:24:37 16:26:51 13° 68° (ENE) 16:29:03 437.250
NOAA 15 23 Jan 16:29:24 16:32:55 18° 66° (ENE) 16:36:25 137.62
Cosmos 2504 23 Jan 16:30:59 16:35:33 15° 290° (WNW) 16:40:00 435.465 / 435.565
M-CUBED/EXP-1 PRIME 23 Jan 16:32:58 16:36:12 61° 288° (WNW) 16:39:24 437.505
Cubesat XI-IV 23 Jan 16:33:08 16:36:42 19° 67° (ENE) 16:40:17 437.490
O/OREOS (USA 219) 23 Jan 16:36:00 16:39:44 26° 258° (WSW) 16:43:27 437.305
AO-7 23 Jan 16:37:26 16:42:38 18° 266° (W) 16:47:53 29.400- 29.500
MOZHAYETS 4 23 Jan 16:54:23 16:56:35 13° 293° (WNW) 16:58:48
NOAA 18 23 Jan 17:05:48 17:09:54 22° 67° (ENE) 17:13:59 137.9125
KKS-1 23 Jan 17:06:38 17:10:28 29° 289° (WNW) 17:14:17 437.445
AUBIESAT-1 23 Jan 17:06:56 17:09:42 25° 292° (WNW) 17:12:27 437.475
HORYU 2 23 Jan 17:08:51 17:13:10 58° 259° (W) 17:17:32 437.375
AIST 2 23 Jan 17:15:27 17:17:50 15° 109° (ESE) 17:20:15 435.215
SRMSAT 23 Jan 17:18:09 17:22:48 23° 184° (S) 17:27:27 437.500
CUTE-I 23 Jan 17:26:41 17:31:55 66° 75° (ENE) 17:37:11 437.470
CINEMA 3 23 Jan 17:27:58 17:29:29 12° 68° (ENE) 17:30:59 145.822/145.860
JUGNU 23 Jan 17:33:36 17:35:08 11° 197° (SSW) 17:36:39 437.505
SO-50 23 Jan 17:37:16 17:39:10 13° 252° (WSW) 17:41:04 436.795
LilacSat-2 23 Jan 17:37:36 17:41:20 79° 258° (WSW) 17:45:08 437.200
GOMX 1 23 Jan 17:38:28 17:43:26 37° 262° (W) 17:48:14 467.674
CUBESAT XI-V 23 Jan 17:48:29 17:52:10 23° 290° (WNW) 17:55:48 437.345
STARS 23 Jan 17:50:09 17:53:30 22° 290° (WNW) 17:56:50 437.465
BRITE-PL 23 Jan 17:56:37 17:58:17 11° 269° (W) 17:59:56 437.365/2234.400
DOVE 4 23 Jan 17:59:13 18:04:07 54° 259° (W) 18:08:46 437.250
NOAA 15 23 Jan 18:07:12 18:12:16 46° 260° (W) 18:17:21 137.62
Cubesat XI-IV 23 Jan 18:11:19 18:16:23 45° 260° (W) 18:21:27 437.490
HO-68 23 Jan 18:13:11 18:19:45 40° 68° (ENE) 18:26:20 435.675
CANX-2 23 Jan 18:13:53 18:17:23 25° 71° (ENE) 18:20:55 2200.000
SEEDS 23 Jan 18:18:20 18:20:52 16° 69° (ENE) 18:23:24 437.485
GONETS M04 23 Jan 18:22:02 18:29:11 30° 85° (E) 18:36:20
Cosmos 2499 23 Jan 18:36:03 18:44:03 48° 91° (E) 18:51:31 435.465 / 435.565
NOAA 18 23 Jan 18:45:05 18:50:14 40° 261° (W) 18:55:22 137.9125
AIST 2 23 Jan 18:52:12 18:55:58 35° 303° (WNW) 18:59:47 435.215
CINEMA 3 23 Jan 19:01:57 19:06:13 47° 260° (W) 19:10:20 145.822/145.860
SRMSAT 23 Jan 19:07:46 19:11:22 16° 193° (SSW) 19:14:58 437.500
CUTE-I 23 Jan 19:10:36 19:12:20 11° 268° (W) 19:14:03 437.470
CUTE 1.7 + AOD 2 23 Jan 19:18:46 19:22:56 57° 260° (W) 19:27:09 437.475
STRAND 1 23 Jan 19:23:00 19:28:10 82° 103° (ESE) 19:33:19 437.568
CUBEBUG 2 23 Jan 19:31:48 19:35:58 76° 76° (ENE) 19:40:05 437.445
FUNcube-1 23 Jan 19:38:05 19:41:29 26° 72° (ENE) 19:44:55 145.935
ISS 23 Jan 19:39:44 19:42:43 34° 131° (SE) 19:45:43 145.825
CANX-2 23 Jan 19:50:00 19:53:08 20° 265° (W) 19:56:20 2200.000
COMPASS 1 23 Jan 19:50:14 19:54:21 57° 260° (W) 19:58:30 437.405
UWE-3 23 Jan 19:52:20 19:56:28 81° 76° (ENE) 20:00:37 435.000/436.395/437.385
SEEDS 23 Jan 19:52:24 19:56:13 33° 262° (W) 20:00:04 437.485
AAUSAT CUBESAT 2 23 Jan 19:57:39 20:01:46 62° 259° (W) 20:05:55 437.432
HO-68 23 Jan 20:01:07 20:07:24 32° 262° (W) 20:13:44 435.675
ZACube-1 23 Jan 20:02:39 20:06:42 59° 76° (ENE) 20:10:47 437.345
GONETS M04 23 Jan 20:17:11 20:25:29 49° 281° (W) 20:33:55
Cosmos 2499 23 Jan 20:30:14 20:37:14 29° 284° (WNW) 20:43:53 435.465 / 435.565
Oscar 11 23 Jan 20:31:44 20:36:01 71° 259° (W) 20:40:20 145.826/435.025
DELFI C3 23 Jan 20:41:55 20:45:42 43° 75° (ENE) 20:49:32 145.870
FUNcube-1 23 Jan 21:14:47 21:17:40 18° 265° (W) 21:20:35 145.935
HUMSAT D 23 Jan 21:15:58 21:19:59 60° 76° (ENE) 21:24:05 437.325/437.525
ISS 23 Jan 21:16:55 21:19:15 18° 325° (NW) 21:21:36 145.825
UNISAT 6 23 Jan 21:18:07 21:21:30 21° 96° (E) 21:24:55 437.425
PRISM 23 Jan 21:20:43 21:24:50 79° 102° (ESE) 21:28:53 437.425
RS-15 23 Jan 21:22:28 21:32:18 33° 104° (ESE) 21:42:27 29.354- 29.394
TIGRISAT 23 Jan 21:29:54 21:33:41 26° 97° (E) 21:37:31 435.000
JAS-2 23 Jan 21:31:09 21:35:36 16° 92° (E) 21:40:07 435.910
ESTCUBE 1 23 Jan 21:36:25 21:38:11 12° 66° (ENE) 21:39:58 437.505/2401.250
AO-85 23 Jan 21:38:17 21:41:45 30° 57° (ENE) 21:45:15 145.980
ANTELSAT 23 Jan 21:45:42 21:50:00 43° 99° (E) 21:54:23 437.575/2403.000
CUBEBUG 1 23 Jan 22:06:56 22:09:27 15° 68° (ENE) 22:11:57 437.445
DELFI C3 23 Jan 22:20:03 22:20:40 10° 267° (W) 22:21:16 145.870
AISAT 23 Jan 22:32:49 22:35:59 19° 69° (ENE) 22:39:08 437.250
BY70-1 23 Jan 22:37:36 22:40:27 44° 261° (W) 22:43:33 436.1900
NANOSAT C BR1 23 Jan 22:41:05 22:42:48 12° 94° (E) 22:44:32 145.865
UNISAT 6 23 Jan 22:54:16 22:58:08 29° 288° (WNW) 23:02:05 437.425
50 SAT 23 Jan 22:59:22 23:02:12 22° 72° (ENE) 23:05:02 437.505
VELOX 1 23 Jan 23:04:46 23:08:57 43° 74° (ENE) 23:13:10 145.980
SPROUT 23 Jan 23:05:03 23:08:45 29° 72° (ENE) 23:12:26 437.525
TIGRISAT 23 Jan 23:06:40 23:10:12 23° 289° (WNW) 23:13:47 435.000
ESTCUBE 1 23 Jan 23:10:05 23:14:29 52° 260° (W) 23:18:55 437.505/2401.250
JAS-2 23 Jan 23:13:29 23:21:00 82° 285° (WNW) 23:28:53 435.910
PCSat 23 Jan 23:13:44 23:19:00 58° 112° (ESE) 23:24:19 145.827
UKube-1 23 Jan 23:16:38 23:19:38 19° 69° (ENE) 23:22:38 .
AO-85 23 Jan 23:19:33 23:21:51 15° 250° (WSW) 23:24:10 145.980
ANTELSAT 23 Jan 23:23:52 23:26:19 15° 292° (WNW) 23:28:48 437.575/2403.000
DX 1 23 Jan 23:24:18 23:28:12 32° 72° (ENE) 23:32:05 434.975-435.025
PHONESAT 2.4 23 Jan 23:25:44 23:27:56 88° 312° (NW) 23:30:09 2401.200-2431.200
RS-15 23 Jan 23:32:16 23:43:54 63° 302° (WNW) 23:56:07 29.354- 29.394
QB50P1 23 Jan 23:33:40 23:37:53 65° 101° (E) 23:42:05 145.935-145.965
POLYITAN 1 23 Jan 23:39:04 23:43:20 77° 103° (ESE) 23:47:34 437.675
QB50P2 23 Jan 23:40:28 23:44:44 87° 102° (ESE) 23:48:59 145.880/145.840
CUBEBUG 1 23 Jan 23:41:15 23:45:21 38° 261° (W) 23:49:27 437.445
YUBILEINY 23 Jan 23:49:31 23:56:24 25° 72° (ENE) 00:03:11 435.215
BEESAT 3 23 Jan 23:50:56 23:54:18 25° 56° (NE) 23:57:38 437.485
POPSAT HIP 1 24 Jan 00:01:03 00:05:12 57° 284° (WNW) 00:09:21 437.405
DUCHIFAT 1 24 Jan 00:06:53 00:11:01 57° 284° (WNW) 00:15:08 145.980
AISAT 24 Jan 00:08:18 00:12:12 30° 262° (W) 00:16:06 437.250
NANOSAT C BR1 24 Jan 00:14:41 00:18:39 41° 286° (WNW) 00:22:36 145.865
TISAT 1 24 Jan 00:19:16 00:22:48 27° 72° (ENE) 00:26:20 437.305
AIST 1 24 Jan 00:19:28 00:23:31 44° 81° (E) 00:27:35
BUGSAT 1 24 Jan 00:25:24 00:29:28 75° 103° (ESE) 00:33:33 437.445
Cosmos 2504 24 Jan 00:32:55 00:38:06 21° 72° (ENE) 00:43:12 435.465 / 435.565
50 SAT 24 Jan 00:33:08 00:35:19 15° 265° (W) 00:37:31 437.505
Cosmos 2491 24 Jan 00:34:20 00:41:30 30° 85° (E) 00:48:39 435.465 / 435.565
SPROUT 24 Jan 00:41:50 00:44:39 17° 265° (W) 00:47:29 437.525
VELOX 1 24 Jan 00:43:29 00:45:33 13° 266° (W) 00:47:38 145.980
BEESAT 2 24 Jan 00:43:57 00:47:48 41° 59° (ENE) 00:51:36 435.950
Gurwin Techsat 1B 24 Jan 00:45:45 00:48:28 14° 93° (E) 00:51:10 435.225
ITUPSAT 1 24 Jan 00:46:47 00:47:53 11° 64° (ENE) 00:48:59 437.325
UKube-1 24 Jan 00:51:38 00:55:25 29° 262° (W) 00:59:12 .
PCSat 24 Jan 00:59:17 01:02:46 17° 308° (NW) 01:06:15 145.827
PHONESAT 2.4 24 Jan 01:00:31 01:01:55 15° 348° (NNW) 01:03:20 2401.200-2431.200
JAS-2 24 Jan 01:01:27 01:05:01 14° 299° (WNW) 01:08:40 435.910
DX 1 24 Jan 01:01:34 01:04:23 17° 265° (W) 01:07:14 434.975-435.025
BEESAT 24 Jan 01:15:45 01:19:32 24° 69° (ENE) 01:23:19 436.000
SWISSCUBE 24 Jan 01:17:31 01:21:32 28° 71° (ENE) 01:25:36 437.505
BEESAT 3 24 Jan 01:28:45 01:31:44 20° 250° (WSW) 01:34:41 437.485
Oscar 19 24 Jan 01:37:24 01:42:34 81° 284° (WNW) 01:47:42 437.125/150
YUBILEINY 24 Jan 01:45:02 01:53:37 59° 269° (W) 02:02:06 435.215
RS-15 24 Jan 01:51:49 01:59:35 19° 329° (NNW) 02:07:31 29.354- 29.394
TISAT 1 24 Jan 01:55:32 01:58:23 18° 265° (W) 02:01:15 437.305
CUSAT 1 24 Jan 01:56:34 02:01:13 35° 87° (E) 02:07:03 437.405
AIST 1 24 Jan 02:00:00 02:00:36 10° 274° (W) 02:01:13
MOZHAYETS 4 24 Jan 02:13:03 02:16:53 27° 71° (ENE) 02:20:44
AUBIESAT-1 24 Jan 02:17:07 02:17:11 10° 64° (ENE) 02:17:14 437.475
ITUPSAT 1 24 Jan 02:20:23 02:25:06 65° 259° (W) 02:29:51 437.325
Gurwin Techsat 1B 24 Jan 02:23:29 02:28:41 56° 286° (WNW) 02:33:51 435.225
BEESAT 2 24 Jan 02:23:30 02:25:09 12° 252° (WSW) 02:26:47 435.950
Cosmos 2504 24 Jan 02:24:50 02:31:50 54° 269° (W) 02:38:44 435.465 / 435.565
KKS-1 24 Jan 02:26:47 02:27:40 11° 65° (ENE) 02:28:33 437.445
ITAMSAT 1 24 Jan 02:29:31 02:33:58 28° 97° (E) 02:38:26 435.822/435.867
Cosmos 2491 24 Jan 02:29:32 02:37:50 49° 281° (W) 02:46:13 435.465 / 435.565
PHONESAT 2.4 24 Jan 02:35:26 02:36:15 11° 4° (N) 02:37:03 2401.200-2431.200
AO-7 24 Jan 02:48:27 02:55:51 34° 99° (E) 03:03:11 29.400- 29.500
BEESAT 24 Jan 02:53:07 02:57:08 27° 263° (W) 03:01:11 436.000
SWISSCUBE 24 Jan 02:55:31 02:59:15 23° 264° (W) 03:03:01 437.505
STARS 24 Jan 03:07:17 03:09:26 14° 67° (ENE) 03:11:34 437.465
CUBESAT XI-V 24 Jan 03:10:38 03:13:35 17° 68° (ENE) 03:16:32 437.345
M-CUBED/EXP-1 PRIME 24 Jan 03:13:41 03:18:02 70° 72° (ENE) 03:22:07 437.505
AIST 2 24 Jan 03:17:26 03:21:20 35° 57° (ENE) 03:25:13 435.215
DANDE 24 Jan 03:27:30 03:31:16 68° 95° (E) 03:36:23 436.750
CUSAT 1 24 Jan 03:38:47 03:43:14 26° 291° (WNW) 03:48:37 437.405
AUBIESAT-1 24 Jan 03:46:58 03:51:10 56° 254° (WSW) 03:55:08 437.475
ISS 24 Jan 03:47:10 03:50:21 57° 42° (NE) 03:53:32 145.825
MOZHAYETS 4 24 Jan 03:50:25 03:53:57 22° 264° (W) 03:57:31
KKS-1 24 Jan 03:59:19 04:03:41 57° 259° (W) 04:08:03 437.445
PHONESAT 2.4 24 Jan 04:08:27 04:10:27 28° 20° (NNE) 04:12:25 2401.200-2431.200
ITAMSAT 1 24 Jan 04:08:56 04:13:17 28° 291° (WNW) 04:17:40 435.822/435.867
RS-15 24 Jan 04:17:09 04:20:00 11° 8° (N) 04:22:51 29.354- 29.394
BRITE-PL 24 Jan 04:24:44 04:28:50 32° 96° (E) 04:32:41 437.365/2234.400
AO-7 24 Jan 04:40:49 04:48:36 45° 294° (WNW) 04:56:21 29.400- 29.500
STARS 24 Jan 04:41:13 04:45:22 42° 260° (W) 04:49:32 437.465
CUBESAT XI-V 24 Jan 04:46:11 04:50:35 40° 262° (W) 04:55:00 437.345
AIST 2 24 Jan 04:56:52 04:59:29 16° 251° (WSW) 05:02:06 435.215
O/OREOS (USA 219) 24 Jan 05:03:44 05:08:09 62° 107° (ESE) 05:12:34 437.305
HORYU 2 24 Jan 05:04:15 05:08:23 36° 99° (E) 05:12:30 437.375
LilacSat-2 24 Jan 05:16:27 05:18:49 15° 94° (E) 05:21:11 437.200
NOAA 18 24 Jan 05:33:37 05:35:48 12° 93° (E) 05:37:59 137.9125
PHONESAT 2.4 24 Jan 05:42:20 05:44:07 21° 214° (SW) 05:45:54 2401.200-2431.200
GOMX 1 24 Jan 05:45:06 05:49:22 79° 282° (WNW) 05:53:30 467.674
CUTE-I 24 Jan 05:48:33 05:53:31 38° 99° (E) 05:58:27 437.470
DOVE 4 24 Jan 06:02:43 06:06:47 54° 100° (E) 06:10:52 437.250
BRITE-PL 24 Jan 06:03:56 06:07:00 18° 293° (WNW) 06:09:56 437.365/2234.400
SO-50 24 Jan 06:04:15 06:08:48 48° 114° (ESE) 06:13:18 436.795
Cosmos 2499 24 Jan 06:25:23 06:32:27 76° 83° (E) 06:39:35 435.465 / 435.565
NOAA 15 24 Jan 06:26:44 06:32:03 84° 284° (WNW) 06:37:20 137.62
RS-15 24 Jan 06:28:37 06:38:53 29° 42° (NE) 06:48:48 29.354- 29.394
GONETS M04 24 Jan 06:32:33 06:41:24 69° 82° (E) 06:50:11
Cubesat XI-IV 24 Jan 06:32:51 06:38:12 77° 285° (WNW) 06:43:32 437.490
STRAND 1 24 Jan 06:34:11 06:39:15 73° 75° (ENE) 06:44:20 437.568
HORYU 2 24 Jan 06:41:47 06:44:35 17° 292° (WNW) 06:47:23 437.375
O/OREOS (USA 219) 24 Jan 06:47:35 06:47:56 10° 302° (WNW) 06:48:18 437.305
LilacSat-2 24 Jan 06:49:46 06:53:04 27° 287° (WNW) 06:56:22 437.200
CINEMA 3 24 Jan 07:00:27 07:04:38 53° 100° (E) 07:08:58 145.822/145.860
CUTE 1.7 + AOD 2 24 Jan 07:08:20 07:12:13 33° 98° (E) 07:16:04 437.475
NOAA 18 24 Jan 07:11:25 07:16:49 65° 286° (WNW) 07:22:12 137.9125
CUBEBUG 2 24 Jan 07:27:12 07:30:44 23° 96° (E) 07:34:20 437.445
CUTE-I 24 Jan 07:29:15 07:33:15 22° 292° (WNW) 07:37:15 437.470
HO-68 24 Jan 07:32:43 07:39:51 65° 103° (ESE) 07:46:54 435.675
COMPASS 1 24 Jan 07:37:45 07:41:27 30° 97° (E) 07:45:07 437.405
CANX-2 24 Jan 07:38:10 07:42:28 84° 285° (WNW) 07:46:44 2200.000
SEEDS 24 Jan 07:40:16 07:44:26 53° 100° (E) 07:48:33 437.485
AAUSAT CUBESAT 2 24 Jan 07:44:42 07:48:16 27° 97° (E) 07:51:48 437.432
SO-50 24 Jan 07:46:24 07:49:29 17° 309° (NW) 07:52:31 436.795
UWE-3 24 Jan 07:46:33 07:50:08 23° 96° (E) 07:53:47 435.000/436.395/437.385
ZACube-1 24 Jan 07:56:06 07:59:05 17° 95° (E) 08:02:05 437.345
